Home   Weather   Brownsville   Past weeks

Flag for USA Past Weather in Brownsville, Texas, USA — Yesterday and Last 2 Weeks

Now
73 °F

Sunny.


Feels Like: 75 °F
Forecast: 50 / 80 °F
Wind: 13 mph from Southwest

Location: Brownsville / South Padre Island International Airport

Current Time: Dec 6, 2016 at 12:13:32 pm

Latest Report: Dec 6, 2016 at 10:53 am


Visibility: 10 mi

Pressure: 29.97 "Hg

Humidity: 69%

Dew Point: 62 °F

Location of BrownsvilleLocation

Past Weather in Brownsville — Graph

°F

Brownsville Temperature Yesterday

Maximum temperature yesterday: 65 °F (at 2:53 pm)
Minimum temperature yesterday: 51 °F (at 10:53 pm)
Average temperature yesterday: 57 °F

High & Low Weather Summary for the Past Weeks

 TemperatureHumidityPressure
High86 °F (Nov 28, 1:53 pm)100% (Nov 23, 6:53 am)30.29 "Hg (Nov 23, 6:53 am)
Low48 °F (Dec 6, 5:53 am)34% (Nov 30, 10:53 am)29.54 "Hg (Nov 29, 2:53 pm)
Average72 °F81%29.93 "Hg
* Reported Nov 21 10:53 am — Dec 6 10:53 am, Brownsville, Weather by CustomWeather, © 2016

Note: Actual official high and low records may vary slightly from our data, if they occured in-between our weather recording intervals... More about our weather records

Advertising

Brownsville Weather History for the Previous 24 Hours

Scroll right to see more
 ConditionsComfort  
Time TempWeatherWind HumidityBarometerVisibility
10:53 am
Tue, Dec 6
73 °FSunny.13 mph69%29.97 "Hg10 mi
9:53 am68 °FSunny.10 mph78%29.97 "Hg10 mi
8:53 am63 °FSunny.7 mph90%29.96 "Hg10 mi
7:53 am54 °FSunny.3 mph97%29.94 "Hg10 mi
6:53 am51 °FFog.5 mph96%29.92 "Hg4 mi
5:53 am48 °FClear.6 mph96%29.89 "Hg10 mi
4:53 am50 °FClear.3 mph93%29.89 "Hg10 mi
3:53 am50 °FClear.No wind93%29.90 "Hg10 mi
2:53 am50 °FClear.No wind93%29.89 "Hg10 mi
1:53 am49 °FClear.3 mph97%29.89 "Hg10 mi
12:53 am51 °FClear.3 mph92%29.88 "Hg10 mi
11:53 pm
Mon, Dec 5
51 °FClear.5 mph96%29.88 "Hg10 mi
10:53 pm51 °FClear.No wind92%29.89 "Hg10 mi
9:53 pm52 °FClear.No wind97%29.88 "Hg10 mi
8:53 pm53 °FClear.No wind93%29.87 "Hg10 mi
7:53 pm56 °FClear.No wind93%29.86 "Hg10 mi
6:53 pm59 °FClear.No wind87%29.85 "Hg10 mi
5:53 pm62 °FClear.3 mph75%29.83 "Hg10 mi
4:53 pm64 °FSunny.3 mph70%29.81 "Hg10 mi
3:53 pm65 °FSunny.7 mph68%29.81 "Hg10 mi
2:53 pm65 °FSunny.9 mph68%29.82 "Hg10 mi
1:58 pm63 °FScattered clouds.14 mph73%29.84 "Hg10 mi
12:53 pm61 °FMostly cloudy.12 mph75%29.85 "Hg10 mi
Weather by CustomWeather, © 2016

See weather overviewHow to use our weather pages